Regional Weather Roundup
Issued by NWS

Home | Current Version | Previous Version | Graphics & Text | Print | Product List | Glossary On
Versions: 1 2 3 4 5 6 7 8 9 10 11 12 13 14 15 16 17 18 19 20 21 22 23 24 25 26 27 28 29 30 31 32 33 34 35 36 37 38 39 40 41 42 43 44 45 46 47 48 49 50
000
ASUS45 KCYS 271410
RWRWY

WYOMING REGIONAL WEATHER ROUNDUP
NATIONAL WEATHER SERVICE CHEYENNE WY
800 AM MDT MON APR 27 2015

NOTE:  "FAIR" INDICATES FEW OR NO CLOUDS BELOW 12,000 FEET
WITH NO SIGNIFICANT WEATHER AND/OR OBSTRUCTIONS TO VISIBILITY.

WYZ001-271500-
YELLOWSTONE NATIONAL PARK

CITY           SKY/WX    TMP DP  RH WIND       PRES   REMARKS
LK YELLOWSTONE   N/A     29  25  85 CALM      30.30R
W YELLOWSTONE  NOT AVBL

$$
WYZ002>013-054>058-071-098>099-271500-
NORTHERN WYOMING

CITY           SKY/WX    TMP DP  RH WIND       PRES   REMARKS
JACKSON        SUNNY     36  30  80 N9        30.27R WCI  29
CODY           CLOUDY    36  34  93 SW3       30.31R
GREYBULL       CLOUDY    39  34  82 NE3       30.32R
WORLAND        CLOUDY    38  34  85 E3        30.32R
SHERIDAN       CLOUDY    37  33  85 W3        30.33R
BUFFALO        CLOUDY    35  33  92 N5        30.30R WCI  31
GILLETTE       CLOUDY    35  33  92 N10       30.30R WCI  27
HULETT         CLOUDY    34  34 100 N5        30.31R FOG     WCI  30
NEWCASTLE      DRIZZLE   37  37 100 NW7       30.27R WCI  32

$$
WYZ014>020-022>026-101>103-271500-
CENTRAL WYOMING

CITY           SKY/WX    TMP DP  RH WIND       PRES   REMARKS
BIG PINEY      CLOUDY    39  29  67 N5        30.24R
PINEDALE       CLOUDY    36  36 100 CALM      30.24R
DUBOIS         SNOW      32  32 100 SE10      30.25R VSB 1/4 WCI  24
LANDER         CLOUDY    35  34  96 CALM      30.27R FOG
RIVERTON       CLOUDY    36  32  85 CALM      30.29R
CASPER         CLOUDY    34  32  92 N6        30.28R FOG     WCI  29
DOUGLAS        LGT RAIN  36  35  96 NW6       30.28R WCI  31

$$
WYZ021-027>030-104>119-271500-
SOUTHERN WYOMING

CITY           SKY/WX    TMP DP  RH WIND       PRES   REMARKS
EVANSTON       CLOUDY    35  32  88 N9        30.23R WCI  28
KEMMERER       CLOUDY    34  34 100 SW3       30.25R
FORT BRIDGER   CLOUDY    36  36 100 W3        30.27R
ROCK SPRINGS   MIX PCPN  35  32  88 NE10      30.24R WCI  27
DIXON          CLOUDY    37  35  91 CALM      30.20R
RAWLINS        LGT SNOW  35  31  85 N6        30.21R FOG     WCI  30
SARATOGA       CLOUDY    36  36 100 CALM      30.21R
LARAMIE        CLOUDY    37  32  82 NE9       30.21R WCI  30
CHEYENNE       CLOUDY    35  33  92 N3        30.22R FOG
TORRINGTON     CLOUDY    44  41  89 NE8       30.23R
PINE BLUFFS    CLOUDY    37  37 100 N3        30.23R FOG

$$


USA.gov is the U.S. government's official web portal to all federal, state and local government web resources and services.